Find Starlink 35593

NORAD ID: 66107 Int'l Des: 2025-236 Owner: SPXS Country: US Constellation: starlink operational
LEOCIRCULAR

当前视图

正在加载3D地球...

About Starlink 35593

Starlink 35593 (NORAD 66107) is a starlink constellation satellite (v2 mini) launched Oct 19, 2025 by SPXS of US. It operates in LEO, CIRCULAR orbit with a mass of 575.00 kg.

即将过境

Passes for default location (London). Set your location on the main map for personalized predictions.

高度历史

Loading altitude history...

两行轨道根数

1 66107U 25236X 26264.05182591 .00008656 00000-0 26700-3 0 9992
2 66107 53.1608 273.0158 0002024 103.5852 256.5376 15.34404527 52908
Epoch: Sep 21, 2026 • Age: 29 hours

当前状态

高度 480.3 km
远地点 / 近地点 N/A
速度 7.62 km/s
星下点 -48.42°S, 46.38°E
发射日期 Oct 19, 2025
运行时间 0.9 years
类型 internet

技术详情

分类 Payload
质量 575.00 kg
干质量 530.00 kg
长度 0.30 m
跨度 29.00 m
形状 ? Box + pan
制造商 SPXS
平台类型 Starlink V2MO
阶段状态 In Orbit
所有者/国家 SPXS/US

Most Searched